Date,TemperatureHighF,TemperatureAvgF,TemperatureLowF,DewpointHighF,DewpointAvgF,DewpointLowF,HumidityHigh,HumidityAvg,HumidityLow,PressureMaxIn,PressureMinIn,WindSpeedMaxMPH,WindSpeedAvgMPH,GustSpeedMaxMPH,PrecipitationSumIn
2013-11-1,48.2,44.9,41.2,42.5,40.1,38.3,89,83,76,29.78,29.48,14,2,14,0.01
2013-11-2,50.3,40.2,29.7,38.3,33.2,26.2,90,77,53,30.16,29.77,13,2,14,0.00
2013-11-3,53.7,39.1,25.2,38.1,31.0,22.4,91,74,45,30.29,30.15,20,2,20,0.00
2013-11-4,58.4,49.8,40.9,43.2,39.2,34.3,77,67,51,30.18,30.04,18,4,34,0.00
2013-11-5,54.8,51.7,47.9,50.7,47.0,42.9,89,84,73,30.22,29.88,34,3,34,0.19
2013-11-6,56.1,44.7,32.2,53.0,38.8,26.1,89,80,63,30.24,29.75,22,4,22,0.26
2013-11-7,41.6,33.5,26.2,33.0,27.7,22.2,86,79,67,30.28,30.23,16,2,16,0.00
2013-11-8,50.4,39.5,26.1,34.8,28.9,22.4,87,67,46,30.32,29.85,32,4,32,0.00
2013-11-9,58.2,49.3,40.2,39.8,36.6,30.2,73,62,49,30.20,29.84,38,6,38,0.00
2013-11-10,48.7,40.3,29.1,31.6,29.2,24.0,83,65,49,30.40,30.20,14,3,14,0.00
2013-11-11,46.9,37.2,21.3,35.0,28.2,14.9,87,70,59,30.60,30.09,20,2,20,0.04
2013-11-12,31.8,22.0,15.3,19.7,14.4,10.3,81,73,54,30.76,30.59,13,2,13,0.00
2013-11-13,43.7,30.4,16.8,19.1,15.7,11.7,81,57,32,30.62,30.14,18,4,23,0.01
2013-11-14,52.1,41.5,31.7,27.9,23.6,16.9,65,49,38,30.14,29.91,25,4,25,0.00
2013-11-15,55.8,43.5,35.1,34.0,29.2,23.0,80,58,40,29.97,29.87,23,3,23,0.00
2013-11-16,59.8,51.8,40.0,54.0,46.7,33.4,86,83,75,29.87,29.50,32,8,32,0.03
2013-11-17,69.1,53.5,41.3,61.3,47.8,35.4,89,81,71,29.84,29.16,36,7,36,0.25
2013-11-18,43.4,37.5,27.1,35.6,28.4,22.3,84,70,52,30.28,29.84,29,6,29,0.00
2013-11-19,42.7,31.7,20.9,28.9,24.6,17.8,89,76,55,30.36,30.21,14,2,14,0.00
2013-11-20,40.0,35.8,29.4,35.2,30.5,24.9,88,81,66,30.23,30.03,20,3,20,0.40
2013-11-21,44.6,40.9,37.4,40.3,37.1,34.3,90,86,82,30.27,30.07,9,0,9,0.00
2013-11-22,39.9,32.8,21.5,36.3,27.2,17.0,87,80,68,30.52,30.26,16,3,16,0.04
2013-11-23,24.1,19.0,8.6,17.0,9.8,2.6,83,68,46,30.76,30.50,20,4,20,0.00
2013-11-24,29.2,18.0,7.7,10.5,6.3,3.0,82,62,33,30.75,30.36,22,3,22,0.00
2013-11-25,33.5,28.8,19.4,25.8,19.9,10.0,81,69,55,30.36,30.08,23,3,23,0.00
2013-11-26,31.9,27.7,15.5,24.9,19.2,5.1,85,71,51,30.26,30.06,22,4,22,0.00
2013-11-27,27.6,18.8,9.5,12.2,8.2,2.9,75,63,47,30.32,30.21,11,3,11,0.00
2013-11-28,34.4,24.5,14.8,18.1,14.1,9.4,84,65,49,30.51,30.13,18,2,18,0.00
2013-11-29,37.1,23.8,10.3,20.4,15.4,6.5,87,72,46,30.61,30.34,18,1,18,0.00
2013-11-30,51.8,35.3,23.5,32.8,26.3,19.3,87,71,47,30.34,30.03,11,1,14,0.00